Location: Vihti�l�
(61.3833°N, 23.0667°E)
Time: 03:35:02
(UTC+00:00)

Cosmos 1271 Rocket - Pass Details

Date: 29 November 2020
Orbit: 499 x 544 km, 81.2° (Epoch: 19 January)

Event Time Altitude Azimuth Distance (km) Brightness Sun altitude
Exits shadow 05:49:02 - 341° (NNW) 2,169 5.4 -8.4°
Reaches altitude 10° 05:50:05 10° 341° (NNW) 1,733 4.9 -8.3°
Maximum altitude 05:53:53 80° 256° (WSW) 526 2.6 -7.9°
Drops below altitude 10° 05:57:42 10° 169° (SSE) 1,742 6.1 -7.6°
Sets 05:59:50 0° 168° (SSE) 2,632 7.0 -7.3°
